GFSSW_sfc_rhum_159.txt.gz
RH
71 71 71 71 72 72 71 70 71 72 72 71 72 76 79 84 87 82 49 24 44 52 50 46 39 36 38 45 42 44 53 50 39 37 30 23 22 21 20 22 20 26 39 40 59
72 72 72 71 71 69 69 68 69 70 71 72 71 74 79 85 95 76 44 42 49 63 38 40 42 38 44 44 44 47 57 49 33 30 26 24 22 21 22 22 22 21 32 44 70
72 72 71 70 70 70 70 70 70 70 69 71 74 76 81 87 45 15 44 50 53 57 35 33 36 37 42 43 44 45 50 39 30 33 28 26 25 21 25 29 24 24 23 56 75
72 72 70 71 72 72 74 76 76 75 74 76 80 80 86 82 15 26 64 56 66 37 33 35 34 40 45 45 41 45 42 36 36 34 33 30 25 25 27 27 21 25 23 52 66
72 71 72 73 73 73 74 73 73 75 77 79 80 80 66 36 33 21 68 64 56 37 37 39 37 39 40 39 40 46 41 36 36 39 38 35 35 30 29 26 24 24 27 42 51
72 73 74 74 75 74 73 73 71 72 76 79 78 80 53 33 18 62 68 72 56 39 41 36 36 35 35 36 40 37 37 33 34 33 34 34 33 37 30 27 27 30 30 30 40
74 75 75 75 77 79 79 77 72 75 82 82 81 82 65 34 33 35 72 69 49 38 45 36 33 33 36 33 31 32 36 35 33 33 34 36 37 39 27 28 27 29 28 31 33
75 76 76 76 76 75 78 72 76 86 83 82 84 80 42 32 38 45 65 44 44 36 36 39 33 33 29 29 31 34 34 37 28 36 34 32 38 30 26 30 30 29 27 32 30
76 78 78 75 79 78 75 69 75 83 82 84 77 59 35 38 38 35 61 44 45 38 38 26 31 36 34 37 40 39 34 37 33 32 35 34 38 30 29 33 31 31 29 30 31
77 77 76 77 79 77 68 59 61 68 61 74 62 57 34 31 34 39 53 39 40 43 41 38 45 45 45 41 46 42 41 42 37 30 34 37 38 34 29 32 31 27 28 31 30
75 76 77 76 78 68 56 42 44 38 43 46 51 53 50 45 38 34 44 37 38 42 49 45 50 52 42 42 36 31 40 41 40 36 35 34 38 36 33 34 35 31 28 28 27
75 76 75 75 78 67 47 59 58 52 67 48 46 46 42 43 45 35 40 43 44 46 50 51 56 45 44 45 43 44 43 43 42 40 41 41 42 34 31 31 28 26 26 27 31
77 77 74 76 71 68 60 61 54 52 75 55 58 58 54 50 49 42 44 47 51 55 52 46 46 44 44 51 51 49 47 47 42 43 42 41 40 35 27 30 30 28 30 28 30
78 76 73 74 55 76 54 59 68 59 63 33 44 47 51 52 50 39 37 44 48 52 54 50 41 46 54 50 46 55 47 45 48 51 53 34 52 40 29 31 30 28 40 39 46
78 76 73 71 79 66 58 73 65 68 33 25 49 39 45 42 36 37 35 43 49 50 51 54 52 53 49 43 46 53 48 52 52 57 51 45 45 40 36 31 27 41 52 66 74
76 74 73 76 79 77 74 72 67 22 26 26 37 31 24 27 33 35 39 36 40 50 49 43 42 47 45 40 43 44 42 47 52 50 56 45 42 46 38 26 30 41 65 77 82
75 72 73 68 79 69 76 64 26 26 23 33 36 28 29 29 31 35 44 48 50 61 56 46 47 42 39 44 46 46 49 75 65 68 57 47 50 43 38 33 33 33 56 80 82
71 73 74 69 70 79 55 55 28 22 38 30 30 27 27 34 37 36 44 52 45 49 57 60 56 47 39 38 49 53 50 80 78 69 68 55 60 44 38 44 52 56 59 83 87
72 82 70 60 68 60 31 32 27 56 53 58 35 33 41 42 40 35 43 57 65 48 66 62 63 43 40 34 37 52 61 45 57 62 64 65 46 36 49 41 66 69 84 86 89
90 80 66 61 72 62 37 34 38 64 64 62 44 59 59 62 44 44 40 56 65 52 39 62 73 47 39 40 40 41 38 66 61 85 69 54 46 40 36 34 44 79 85 88 88
88 85 63 67 63 69 75 66 69 61 59 74 75 75 65 65 51 52 45 36 52 47 53 50 65 65 49 48 50 48 50 51 52 54 53 48 41 34 32 34 44 58 82 86 89
88 69 58 57 85 97 93 84 60 65 54 57 76 74 72 66 72 63 55 38 53 52 65 66 57 81 67 44 43 45 45 46 78 67 56 45 41 33 44 58 67 79 84 83 86
93 89 68 57 86 98 79 66 62 66 62 63 62 59 57 68 74 73 70 56 55 58 62 56 85 90 81 58 67 82 76 66 57 52 55 54 46 39 52 66 76 82 84 85 85
92 86 84 96 84 81 88 80 73 62 58 62 65 58 67 74 66 77 73 66 55 54 59 60 91 91 82 83 96 97 98 95 74 68 60 53 43 38 43 47 62 79 82 82 84
92 92 78 89 96 92 79 82 86 80 63 61 61 60 70 92 87 74 58 57 59 56 63 68 83 74 65 58 94 88 79 93 93 66 78 68 62 50 44 42 39 54 80 86 88
97 97 93 100 98 98 83 94 90 77 70 77 77 65 65 85 80 84 69 73 78 72 74 79 87 68 73 56 51 61 72 72 80 58 50 55 55 42 42 37 41 51 77 82 84
99 96 90 90 97 98 91 81 78 73 65 59 64 71 78 72 56 58 64 70 73 79 78 81 78 91 81 59 54 62 49 48 53 42 34 48 46 34 39 44 38 34 66 73 74

GFSSW_sfc_rhum_162.txt.gz
RH
72 71 70 70 70 70 70 70 69 70 70 71 72 72 75 82 80 36 24 20 29 57 52 31 30 29 30 36 35 34 27 21 21 23 18 18 18 16 15 16 24 26 18 28 46
72 71 70 70 72 72 73 74 74 74 72 71 72 75 77 82 44 27 35 39 46 64 24 25 30 29 30 33 34 31 30 20 21 19 20 19 18 16 17 16 16 16 18 26 49
72 71 71 73 73 73 75 74 75 75 76 76 77 81 81 71 27 8 46 50 52 49 19 19 22 26 31 33 31 32 26 24 22 19 24 21 20 17 18 22 16 16 14 23 40
72 72 73 74 74 73 73 75 73 73 74 76 78 81 85 48 14 17 59 55 59 28 21 22 25 30 30 31 28 32 24 24 21 22 25 24 20 20 19 19 15 16 14 17 30
73 74 74 74 74 73 73 73 72 71 72 75 78 79 55 26 18 15 62 58 39 26 22 22 23 26 27 25 27 31 24 25 25 26 26 23 25 23 20 17 15 16 17 18 22
74 74 74 75 74 73 74 73 70 69 75 78 78 79 40 22 14 34 39 44 29 25 23 24 20 22 22 23 25 24 27 25 23 23 22 25 21 21 18 16 16 17 18 16 18
75 74 74 73 73 73 74 75 68 75 85 82 80 63 40 18 19 23 45 36 38 25 26 22 23 24 23 24 24 24 28 21 21 20 21 24 25 22 18 15 17 15 15 17 18
76 74 73 72 73 74 77 72 72 86 82 82 83 54 25 23 20 26 40 42 38 27 25 25 23 25 25 23 24 24 24 25 19 24 24 26 21 17 16 18 18 16 14 16 18
74 74 74 73 74 75 72 68 69 81 82 82 54 41 21 32 24 25 26 32 37 31 25 25 27 28 28 28 26 25 22 22 20 20 22 27 22 20 20 21 21 18 16 16 17
74 76 76 74 75 75 68 57 49 68 48 59 50 45 25 26 28 27 33 30 35 33 31 29 27 29 28 27 28 22 25 20 21 20 26 26 27 21 17 16 18 17 16 16 15
75 76 77 74 72 68 40 18 14 20 18 16 22 38 30 27 29 25 33 30 28 32 33 32 32 34 25 25 23 23 23 22 19 22 28 23 21 17 16 19 20 18 16 14 14
74 76 75 73 77 68 30 33 42 42 28 28 28 29 27 25 24 21 31 26 29 29 28 37 37 24 23 29 32 29 30 27 23 22 27 25 25 20 18 20 19 18 15 14 13
76 77 74 74 74 46 36 44 43 44 43 30 36 40 40 36 32 27 32 31 31 29 34 28 23 26 30 35 35 32 33 28 26 25 26 27 31 20 20 18 19 18 18 16 16
77 77 73 74 42 43 38 44 48 43 38 24 36 40 41 42 37 28 26 30 34 32 29 33 24 31 39 37 31 37 26 32 36 37 36 27 30 22 24 22 18 17 18 19 20
76 76 74 74 39 34 43 46 48 49 32 19 40 32 31 32 24 30 26 31 33 32 36 31 40 34 36 30 32 32 34 37 38 38 35 34 35 19 28 24 18 22 28 35 33
73 73 72 47 38 48 45 48 49 27 30 21 23 20 16 13 16 20 27 28 26 31 32 31 24 31 28 27 28 32 38 40 41 39 45 28 31 20 27 22 18 20 32 43 45
72 70 59 45 40 47 49 42 22 24 15 26 27 23 16 19 14 19 19 18 24 33 31 27 29 29 28 34 35 39 45 56 56 58 44 33 36 26 25 28 22 22 26 46 47
68 70 58 45 47 48 34 25 22 19 32 32 32 18 15 26 22 22 23 20 30 34 36 31 30 25 28 32 33 42 40 63 83 55 58 44 48 30 29 30 31 35 37 53 56
67 43 41 40 47 44 18 15 24 41 45 47 20 18 18 32 27 23 22 43 39 34 49 42 34 21 27 27 28 37 49 33 49 52 55 42 32 27 33 28 39 40 52 62 64
47 44 44 40 46 38 13 23 38 50 49 40 19 30 27 31 35 26 23 28 45 38 34 37 44 27 28 30 31 31 30 56 68 84 76 40 35 32 35 31 30 41 58 64 80
56 44 44 42 39 21 38 35 52 48 42 37 42 37 30 35 32 29 27 23 39 38 31 62 62 40 35 36 34 43 50 41 46 49 44 41 40 27 30 37 51 51 61 66 76
70 45 45 40 43 71 37 42 50 47 33 37 41 41 40 38 39 36 33 28 26 38 40 46 96 71 43 31 37 54 67 41 52 51 45 38 34 24 35 51 60 63 64 64 69
79 81 49 44 74 76 60 53 40 40 43 44 41 37 32 42 51 39 37 34 41 38 39 36 44 66 35 30 58 96 97 81 89 66 49 48 33 36 44 48 58 62 58 59 64
88 82 59 70 59 40 46 46 48 52 43 38 38 43 46 40 36 59 50 45 44 38 51 54 53 66 57 53 88 98 99 100 94 90 55 38 40 42 38 38 35 47 59 55 58
68 81 59 75 64 41 34 45 49 48 42 40 44 44 48 76 55 50 60 43 37 42 41 48 58 37 38 42 48 67 60 71 98 88 83 85 60 36 32 34 35 37 51 59 59
90 91 65 70 72 72 64 64 51 48 43 44 46 38 40 61 56 72 54 53 56 40 49 49 63 46 53 35 36 44 38 38 51 88 78 68 71 41 29 30 30 31 42 52 56
88 75 56 77 65 56 43 48 48 42 44 39 41 47 51 43 35 36 40 46 56 64 56 56 61 56 54 29 32 41 30 33 33 34 60 48 41 36 31 30 37 36 34 36 43

GFSSW_sfc_rhum_165.txt.gz
RH
73 72 71 72 73 74 74 74 75 76 77 76 73 74 77 81 81 30 23 21 25 63 59 24 24 22 22 28 27 24 25 21 17 18 16 13 14 14 13 15 16 19 17 21 28
72 72 73 74 74 74 74 74 74 75 76 77 78 78 80 83 48 25 28 42 41 67 25 24 25 24 25 26 27 26 26 19 15 15 16 13 15 12 16 16 16 16 14 19 30
72 73 74 74 74 73 75 74 74 73 74 75 77 80 82 72 30 10 53 45 48 59 17 16 17 22 26 25 26 24 27 17 18 16 15 18 15 14 16 18 14 15 14 16 26
73 75 74 74 74 72 72 75 73 71 72 73 76 80 84 44 17 14 61 54 55 30 16 17 19 26 26 26 19 27 20 18 18 15 18 19 15 15 16 16 12 14 12 12 18
74 75 74 73 72 70 72 73 71 70 69 74 76 78 56 24 17 14 62 53 34 27 19 19 19 21 24 18 18 23 21 15 17 19 20 18 19 18 17 13 12 13 14 15 13
76 75 72 71 70 72 73 74 69 68 74 82 79 76 41 21 12 17 23 29 26 25 19 18 16 15 19 18 19 15 20 19 18 18 18 19 18 18 15 12 12 14 15 14 14
76 73 72 71 72 74 74 76 70 70 84 81 81 55 29 18 14 14 27 26 23 21 21 17 16 20 18 21 17 18 22 18 16 16 18 16 22 20 14 12 13 12 11 13 13
74 72 73 72 73 74 77 74 73 78 83 80 82 42 26 18 13 16 26 27 27 23 22 20 19 21 21 18 20 20 18 23 15 17 15 21 22 12 12 11 14 12 11 12 12
74 74 75 74 75 76 79 73 68 80 79 80 54 36 20 27 19 20 16 25 26 24 22 20 23 25 23 29 24 20 23 21 17 15 16 22 22 13 15 15 16 14 13 12 12
74 76 76 75 77 78 75 71 55 69 61 40 40 39 22 21 23 23 22 21 29 29 29 26 27 29 28 26 30 22 18 17 19 14 18 21 20 17 15 16 16 14 13 12 12
73 75 78 74 74 74 48 13 16 20 16 14 14 18 18 17 15 19 23 22 23 29 33 28 30 31 26 21 20 20 21 21 18 13 17 21 22 18 15 14 14 14 11 11 11
74 76 76 73 77 76 30 21 32 36 28 17 19 19 20 21 18 13 21 25 25 28 25 25 36 26 22 21 22 23 25 25 20 17 18 21 22 18 17 17 16 14 12 12 10
74 76 74 72 77 47 28 35 32 37 36 23 24 29 33 30 25 21 21 24 24 26 23 25 23 21 23 24 26 30 30 28 25 21 20 22 25 21 15 14 15 14 14 13 13
75 75 73 73 53 24 27 29 35 38 36 30 32 34 27 33 32 22 21 25 26 30 26 24 21 24 23 26 25 35 24 25 27 31 34 20 33 22 16 15 14 14 14 15 16
73 74 72 71 29 21 28 29 39 40 38 20 34 20 11 16 18 26 22 28 32 27 29 26 26 31 30 24 24 30 24 27 31 32 31 29 32 23 16 16 15 14 22 23 19
71 70 72 39 25 30 31 33 42 43 33 25 19 18 14 13 13 13 16 23 22 26 24 26 21 23 25 24 22 23 29 33 35 37 44 27 29 26 20 17 16 16 21 30 32
70 68 58 32 26 32 32 33 35 29 15 25 27 21 15 18 16 17 17 16 16 28 25 20 21 21 22 30 26 28 34 55 53 54 48 23 32 27 18 20 22 18 21 32 35
64 67 52 35 32 35 28 24 31 19 27 27 26 17 14 24 18 17 16 17 27 31 31 30 29 17 13 23 30 29 35 54 79 49 47 35 48 33 20 23 25 24 27 35 41
64 36 36 34 34 35 24 21 22 31 34 34 16 13 13 18 20 18 14 16 34 32 39 34 26 16 19 19 27 32 43 33 44 36 47 42 30 24 22 22 28 29 40 43 47
43 36 35 32 33 35 22 26 28 36 32 22 16 12 20 20 20 20 18 18 31 32 29 38 56 25 20 17 22 29 27 51 60 95 69 34 27 27 28 25 35 37 49 52 62
50 35 36 31 28 18 32 27 38 35 24 18 23 20 16 18 20 20 18 16 17 28 29 29 49 38 30 32 26 24 36 36 58 59 44 36 24 18 23 31 43 49 54 58 77
66 58 38 27 23 35 28 34 43 36 24 24 25 26 25 25 27 26 25 22 19 29 36 26 36 39 33 25 24 30 66 82 99 64 49 36 25 21 27 45 48 56 58 58 72
69 51 37 26 76 66 43 36 27 27 26 30 27 29 22 27 36 29 28 26 29 34 33 29 31 45 28 19 19 63 94 89 80 96 84 58 30 22 35 40 41 51 56 56 62
85 76 37 32 32 30 32 27 29 34 31 27 24 25 33 33 28 34 29 27 43 40 43 45 49 59 59 42 44 69 98 99 88 90 95 95 85 38 33 42 40 37 46 52 57
51 75 42 66 43 24 21 24 27 42 29 27 30 32 32 53 43 34 29 38 37 35 31 35 51 35 30 27 28 31 31 68 90 93 84 79 94 79 42 32 46 45 40 48 54
88 83 47 62 40 45 47 41 34 24 29 28 31 26 26 40 37 45 34 34 41 30 32 32 51 39 41 28 24 28 24 26 43 53 92 73 73 42 32 29 28 44 40 36 46
69 61 46 64 49 37 34 37 33 26 30 23 25 30 36 32 27 29 29 30 34 39 43 49 54 54 55 27 27 35 23 20 22 24 31 64 49 48 34 35 35 39 37 34 35

GFSSW_sfc_rhum_168.txt.gz
RH
73 72 73 73 73 73 74 74 75 74 75 76 78 78 80 84 84 42 43 30 33 63 57 27 26 26 27 38 42 41 53 41 30 26 29 17 23 14 17 18 24 22 26 33 44
72 73 74 73 74 74 75 73 74 74 73 76 76 78 80 84 62 41 42 56 60 65 35 26 28 26 35 35 39 44 50 34 24 24 23 18 22 17 21 20 20 21 23 27 41
72 74 75 73 73 72 75 74 74 73 71 74 77 81 81 76 44 27 53 47 50 59 24 20 20 25 36 35 34 37 44 27 23 20 20 20 20 17 20 27 21 22 20 25 38
73 76 75 73 71 70 72 76 72 70 70 71 76 80 84 54 26 19 63 51 52 32 28 19 20 32 37 34 26 34 25 24 24 20 20 22 19 20 21 24 18 18 20 22 30
75 76 74 71 71 70 71 74 70 68 69 72 81 78 65 36 22 31 70 55 36 35 26 21 22 28 34 25 22 24 22 21 20 21 23 21 25 24 21 18 16 15 19 20 21
76 75 72 71 72 73 72 74 71 70 73 80 82 76 51 30 11 14 20 30 25 31 23 20 20 18 21 23 24 22 20 20 21 21 20 23 24 23 20 18 15 15 18 19 20
76 73 71 72 73 73 72 74 72 74 78 83 79 61 37 26 14 14 24 22 26 26 25 18 18 21 23 27 21 21 26 24 22 18 20 20 25 24 17 16 16 16 15 17 20
76 73 73 75 75 76 77 78 76 77 83 79 83 51 36 16 14 14 15 25 24 22 22 23 22 26 27 23 23 25 26 33 20 20 22 22 35 23 16 19 18 16 16 17 17
75 74 75 75 75 75 78 76 73 69 78 77 68 49 29 28 19 19 18 23 26 26 24 20 26 32 28 34 37 31 33 28 25 20 23 27 35 23 19 19 20 20 19 17 16
75 75 77 76 75 77 80 74 60 56 71 44 40 43 29 22 20 20 19 21 22 28 29 30 33 36 36 37 49 37 29 23 26 22 21 26 28 22 19 19 23 22 20 19 17
75 77 79 73 74 77 62 17 18 28 21 18 17 16 14 13 12 16 19 24 24 30 43 35 39 42 34 31 29 27 27 29 25 20 22 24 23 22 21 22 20 21 19 16 14
74 75 75 76 77 78 34 23 34 36 43 21 17 18 18 26 22 13 14 28 28 35 32 37 43 32 26 26 28 28 29 31 27 22 21 24 26 24 21 21 20 19 19 18 17
73 75 73 72 75 49 26 30 29 36 43 24 21 26 31 29 27 22 19 24 31 32 29 32 28 22 28 32 34 31 30 32 33 27 25 29 33 28 20 18 18 18 17 17 18
74 74 71 70 56 21 27 24 32 38 46 31 32 33 28 29 33 20 20 27 29 33 30 30 25 25 26 30 26 34 26 28 31 35 46 29 47 31 22 21 20 20 20 28 26
73 73 70 67 35 24 29 27 34 44 56 25 32 16 12 15 14 23 21 27 35 31 32 36 30 35 36 31 26 30 29 32 34 41 42 40 45 32 26 26 22 18 34 33 35
71 71 70 41 40 29 28 30 42 58 49 26 19 19 15 14 15 15 14 20 22 27 26 27 22 24 26 24 26 27 30 34 42 49 62 43 43 39 30 26 23 23 32 37 38
69 66 60 32 28 30 30 34 46 47 17 26 26 20 16 19 17 16 17 17 23 35 30 24 21 20 18 29 28 33 42 70 71 78 71 36 40 32 29 31 30 30 32 42 40
69 63 50 26 30 34 32 30 42 28 27 25 24 18 17 19 17 17 17 17 29 35 39 36 33 21 24 26 29 29 37 68 86 74 71 38 63 44 31 30 32 34 33 47 48
66 35 32 31 36 39 36 32 34 33 30 28 14 14 15 18 16 16 17 19 37 35 46 43 32 23 24 21 25 33 40 43 60 50 67 57 38 30 34 29 34 36 47 52 54
56 44 43 34 36 48 42 36 29 32 24 17 15 14 18 18 16 18 17 17 27 27 29 35 48 25 25 21 24 29 25 49 73 99 94 60 46 38 30 30 45 45 57 62 76
59 57 45 35 34 48 48 29 36 26 19 16 20 18 14 16 17 20 17 17 19 24 28 32 37 34 27 25 27 29 42 47 84 77 89 74 58 26 41 44 56 60 60 85 85
79 91 59 37 53 33 37 29 42 31 20 25 20 22 21 23 24 24 22 21 25 28 36 31 42 44 33 22 19 20 31 81 97 85 91 98 74 68 76 57 64 68 71 82 80
94 95 70 44 90 77 43 38 27 25 21 23 23 24 22 25 34 28 28 27 28 38 36 36 41 71 46 26 22 33 74 94 94 99 94 95 78 70 84 72 48 75 76 76 75
99 100 88 82 39 45 52 38 32 26 26 20 20 21 27 32 28 34 28 27 30 39 44 43 55 67 85 68 57 63 56 68 72 94 96 83 83 83 93 88 77 54 64 67 68
97 96 58 87 45 35 34 30 30 42 24 22 28 29 29 55 40 32 28 26 26 31 36 40 54 49 40 34 40 42 35 36 70 65 80 72 79 86 88 89 69 49 51 54 64
100 97 74 75 60 63 64 46 34 29 25 28 31 26 23 42 32 42 31 34 39 29 35 36 54 45 55 42 39 36 28 25 26 31 60 59 72 58 79 80 63 60 57 57 51
97 89 92 86 71 60 43 41 28 21 23 21 24 25 29 28 26 29 30 32 38 42 44 49 55 62 74 44 42 53 32 27 25 24 26 45 42 63 80 80 64 42 57 64 49

GFSSW_sfc_rhum_174.txt.gz
RH
72 75 76 74 72 73 74 73 73 74 73 73 73 75 76 82 84 78 67 49 56 62 63 41 48 47 41 46 46 46 60 63 44 37 30 25 24 21 21 25 23 23 50 53 57
72 75 75 74 72 73 74 73 72 73 73 76 73 74 78 83 93 75 50 57 66 67 43 43 43 42 43 47 50 53 61 44 36 37 33 28 29 25 23 24 25 45 66 64 61
72 76 75 73 72 72 72 72 71 70 71 72 77 77 85 86 67 39 57 56 62 66 40 42 38 39 48 46 48 51 53 42 35 33 36 27 25 26 30 29 25 32 58 64 66
73 76 76 73 71 71 72 74 68 68 70 71 81 85 89 88 33 29 59 56 56 63 47 41 40 43 47 45 40 55 43 38 39 35 34 29 24 26 27 26 24 27 27 34 61
74 77 76 73 71 70 70 72 66 68 71 72 84 85 76 57 46 29 67 60 54 45 43 47 36 37 44 42 42 43 39 34 34 33 32 29 31 30 28 25 25 24 25 24 51
75 77 76 74 72 72 73 74 68 70 74 73 83 84 77 44 26 54 47 51 44 50 47 47 34 31 35 39 41 36 31 31 30 28 29 29 31 32 25 28 24 23 24 25 38
75 77 77 76 78 78 77 74 75 76 75 74 82 74 74 36 23 40 41 38 37 42 48 40 34 34 38 37 35 33 37 35 31 30 30 30 33 33 24 27 25 25 23 22 25
75 77 78 79 78 77 77 76 76 77 77 74 83 82 62 35 27 22 24 22 33 37 41 39 34 39 39 38 38 40 45 50 33 32 27 28 40 27 25 30 26 25 27 26 24
76 78 78 78 77 76 77 75 76 74 72 80 88 87 60 36 29 24 28 30 28 37 39 28 35 44 41 50 56 56 56 46 38 29 32 34 39 28 28 27 26 24 26 25 25
78 82 80 79 79 78 76 74 70 62 66 64 60 74 45 23 21 18 20 28 34 44 42 44 48 53 59 58 63 57 60 48 47 34 31 34 35 31 28 29 27 26 26 26 25
82 85 84 78 77 76 77 36 32 28 32 31 32 33 24 20 27 21 21 35 37 47 58 53 60 66 54 54 48 48 51 51 44 35 37 37 37 34 29 30 31 31 29 29 26
83 83 82 79 80 76 55 46 45 33 59 42 37 33 26 32 36 26 22 39 42 50 57 65 72 52 46 48 51 52 56 55 45 36 36 34 35 34 33 31 27 25 26 28 25
83 82 79 78 74 50 41 42 42 50 77 45 34 28 35 35 43 33 28 36 42 51 50 63 53 43 49 51 51 50 55 51 46 40 41 42 40 36 34 33 30 28 27 25 22
86 81 76 74 44 48 43 40 49 50 69 44 35 40 40 44 48 26 29 35 45 46 47 51 40 41 43 46 47 53 42 42 44 50 55 41 57 43 36 35 33 30 29 30 27
88 80 74 67 41 50 44 44 51 60 67 42 45 28 24 31 27 24 27 34 46 43 41 46 38 40 41 39 38 45 40 43 46 54 66 55 64 60 42 34 30 30 36 50 46
88 80 70 57 72 56 47 47 55 67 66 38 28 26 22 24 22 21 24 29 33 40 38 38 30 34 34 30 29 28 39 46 51 57 70 53 54 42 48 42 36 41 51 49 48
89 80 60 41 36 46 48 48 60 69 35 36 36 29 28 27 22 21 41 43 48 43 52 42 34 31 23 35 31 37 54 89 89 82 71 51 59 42 53 82 74 51 46 52 50
88 80 57 33 48 45 49 37 56 51 44 33 34 28 27 25 21 22 37 51 40 45 57 54 42 33 22 26 33 34 47 83 92 93 90 73 76 57 74 70 70 73 70 60 55
85 65 45 47 41 45 46 50 58 46 36 34 27 27 27 21 20 24 36 54 44 43 45 53 54 32 25 23 26 34 41 28 58 59 95 82 70 58 70 73 72 73 74 91 80
71 55 51 41 41 51 76 56 40 40 29 28 24 24 32 22 24 24 28 35 42 37 39 45 47 37 30 21 27 30 32 58 78 99 96 81 86 74 84 83 77 75 68 73 84
73 82 52 48 42 64 73 47 38 24 23 20 24 22 22 25 25 25 30 34 37 39 35 40 46 44 33 40 38 35 34 38 74 88 98 91 83 76 82 73 74 71 66 65 71
77 97 71 54 68 86 64 43 48 33 25 30 30 28 28 33 30 29 29 38 39 39 45 46 60 74 57 36 32 35 64 83 95 86 91 95 90 62 58 65 59 63 70 66 64
95 97 79 65 90 85 70 53 48 49 33 33 35 34 31 33 33 31 38 47 46 45 47 35 58 88 42 36 48 64 63 54 75 92 96 98 83 55 44 42 50 75 77 75 63
97 100 96 92 95 90 73 83 72 63 57 40 33 34 38 37 40 43 35 42 43 45 39 45 65 75 75 61 73 88 80 73 75 88 91 75 66 45 49 42 42 71 82 82 72
98 99 89 98 97 99 98 96 95 82 42 39 44 39 47 61 46 41 38 34 36 34 43 56 80 75 69 62 60 62 56 57 77 73 82 64 66 57 41 41 40 83 82 77 81
100 100 99 100 100 100 100 98 91 69 44 50 54 45 44 59 45 49 40 38 44 44 48 52 64 64 70 52 50 55 52 53 54 55 56 49 50 37 36 35 69 85 81 77 81
99 96 97 98 100 99 95 88 80 64 69 62 72 41 41 39 32 35 35 40 48 51 56 59 68 80 85 60 69 82 55 50 48 41 43 54 38 29 32 30 34 64 80 80 81